This is the latest recevied weather packets stored in our database for station/object N1UNH. If no packets are shown the sender has not sent any weather packets the latest 10 day(s).
| Time | Temp. | Humidity | Pressure | Rain* | Wind** | Luminosity | Snow |
|---|---|---|---|---|---|---|---|
| 1777906291 | 17.22° C | 34% | 1012.9 hPa | 0 mm | - | 560 W/m² | - |
| 1777905988 | 17.22° C | 34% | 1012.9 hPa | 0 mm | - | 455 W/m² | - |
| 1777905685 | 16.67° C | 36% | 1013 hPa | 0 mm | - | 425 W/m² | - |
| 1777905381 | 16.11° C | 36% | 1012.9 hPa | 0 mm | - | 104 W/m² | - |
| 1777905079 | 16.11° C | 36% | 1012.9 hPa | 0 mm | - | 154 W/m² | - |
| 1777904776 | 15.56° C | 38% | 1013.3 hPa | 0 mm | - | 140 W/m² | - |
| 1777904473 | 15.56° C | 40% | 1013.1 hPa | 0 mm | - | 192 W/m² | - |
| 1777904170 | 15.56° C | 37% | 1013.2 hPa | 0 mm | - | 226 W/m² | - |
| 1777903867 | 15.56° C | 37% | 1013.3 hPa | 0 mm | - | 195 W/m² | - |
| 1777903563 | 15.56° C | 37% | 1013.3 hPa | 0 mm | - | 182 W/m² | - |
| 1777903259 | 15° C | 40% | 1013.8 hPa | 0 mm | - | 84 W/m² | - |
| 1777902956 | 15° C | 39% | 1013.8 hPa | 0 mm | - | 93 W/m² | - |
| 1777902653 | 14.44° C | 41% | 1013.6 hPa | 0 mm | - | 94 W/m² | - |
| 1777902350 | 14.44° C | 40% | 1013.9 hPa | 0 mm | - | 85 W/m² | - |
| 1777902047 | 14.44° C | 41% | 1014 hPa | 0 mm | - | 95 W/m² | - |
| 1777901745 | 13.89° C | 41% | 1014.2 hPa | 0 mm | - | 106 W/m² | - |
| 1777901442 | 13.89° C | 43% | 1014 hPa | 0 mm | - | 115 W/m² | - |
| 1777901140 | 13.89° C | 42% | 1014 hPa | 0 mm | - | 101 W/m² | - |
| 1777900838 | 13.89° C | 44% | 1014 hPa | 0 mm | - | 81 W/m² | - |
| 1777900535 | 13.89° C | 42% | 1014.1 hPa | 0 mm | - | 98 W/m² | - |
| 1777900231 | 13.89° C | 42% | 1014 hPa | 0 mm | - | 104 W/m² | - |
| 1777899927 | 13.33° C | 43% | 1014.2 hPa | 0 mm | - | 81 W/m² | - |
| 1777899625 | 13.33° C | 44% | 1014.2 hPa | 0 mm | - | 69 W/m² | - |
| 1777899322 | 12.78° C | 47% | 1014.3 hPa | 0 mm | - | 75 W/m² | - |
| 1777899020 | 12.78° C | 48% | 1014.1 hPa | 0 mm | - | 67 W/m² | - |
* Rain latest hour (hover to see other rain measurements)
** Current wind speed in m/s (hover to see current wind gust speed)